User: anonymous   Login
Location: Unspecified
(0.0000°N, 0.0000°E)
Time: 00:54:54
(UTC+00:00)
Language:

STPSAT 1 - Orbit

View from above orbital plane
View from above orbital plane
View from above satellite
View from above satellite

Ground track
Ground track

The orbit data is extracted from the following two-line orbital elements,

1 30775U 07006D   17324.17175009  .00001434  00000-0  57144-4 0  9999
2 30775  35.4284 233.2108 0003870 279.9277  80.1009 15.25560421591385
Epoch (UTC): 20 November 2017 04:07:19
Eccentricity: 0.0003870
inclination: 35.4284°
perigee height: 486 km
apogee height: 492 km
right ascension of ascending node: 233.2108°
argument of perigee: 279.9277°
revolutions per day: 15.25560421
mean anomaly at epoch: 80.1009°
orbit number at epoch: 59138

The dashed part of the orbit path shows where the satellite is in the earth's shadow,  

DLR